CW0775 Weather Reports


time (UTC)temp
F
wind
direction
speed
knots
gust
knots
rain 1hr
in
rain 24hr
in
rain mn
in
humidity
%
barometer
mb
20260504081506 60 145 0.0 2.6 0.00 0.00 0.00 70 1014.0
20260504081006 59 169 0.0 2.6 0.00 0.00 0.00 74 1013.9
20260504080505 57 157 0.9 2.6 0.00 0.00 0.00 75 1013.9
20260504050505 46 272 0.0 0.0 0.00 0.00 0.00 92 1013.5
20260504050005 45 272 0.0 0.0 0.00 0.00 0.00 93 1013.5
20260504044506 44 270 0.0 0.0 0.00 0.00 0.00 94 1013.5
20260504044006 43 271 0.0 0.0 0.00 0.00 0.00 94 1013.4
20260504043506 43 271 0.0 0.0 0.00 0.00 0.00 94 1013.3
20260504043005 42 271 0.0 0.0 0.00 0.00 0.00 94 1013.5
20260504041507 42 271 0.0 0.0 0.00 0.00 0.00 94 1013.5
20260504041006 43 272 0.0 1.7 0.00 0.00 0.00 94 1013.5
20260504040505 43 272 0.0 0.0 0.00 0.00 0.00 94 1013.5
20260504040005 42 262 0.0 0.0 0.00 0.00 0.00 94 1013.5
20260504034506 42 243 0.0 0.0 0.00 0.00 0.00 94 1013.6
20260504034006 42 243 0.0 0.0 0.00 0.00 0.00 94 1013.5
20260504033005 43 243 0.0 0.0 0.00 0.00 0.00 94 1013.8
20260504031506 43 243 0.0 0.0 0.00 0.00 0.00 94 1013.8
20260504031005 43 242 0.0 0.0 0.00 0.00 0.00 94 1013.5
20260504030005 44 231 0.0 0.0 0.00 0.00 0.00 94 1013.5
20260504024505 43 274 0.0 0.0 0.00 0.00 0.00 93 1013.8
20260504024005 43 274 0.0 0.0 0.00 0.00 0.00 93 1013.7
20260504023506 43 274 0.0 0.0 0.00 0.00 0.00 93 1013.5
20260504023005 44 274 0.0 0.0 0.00 0.00 0.00 93 1013.5
20260504021506 43 274 0.0 1.7 0.00 0.00 0.00 93 1013.7
20260504021005 43 276 0.0 0.0 0.00 0.00 0.00 93 1013.7
20260504020505 43 268 0.0 0.0 0.00 0.00 0.00 93 1013.5
20260504020005 43 267 0.0 2.6 0.00 0.00 0.00 93 1013.6
20260504014505 43 279 0.9 1.7 0.00 0.00 0.00 92 1013.5
20260504013506 44 272 0.0 0.0 0.00 0.00 0.00 92 1013.5
20260504013005 44 272 0.0 1.7 0.00 0.00 0.00 92 1013.5
20260504011506 44 272 1.7 2.6 0.00 0.00 0.00 92 1013.5
20260504011005 44 278 0.0 0.0 0.00 0.00 0.00 91 1013.5
20260504010506 45 276 0.0 0.0 0.00 0.00 0.00 91 1013.5
20260504010004 45 276 0.0 1.7 0.00 0.00 0.00 91 1013.5
20260504004505 45 272 1.7 2.6 0.00 0.00 0.00 90 1013.5
20260504003506 45 272 0.0 0.0 0.00 0.00 0.00 90 1013.5
20260504003005 46 272 0.0 0.0 0.00 0.00 0.00 89 1013.5
20260504001505 46 271 0.0 0.0 0.00 0.00 0.00 88 1013.2
20260504000505 47 275 0.0 0.0 0.00 0.00 0.00 88 1013.5
20260503234505 47 275 0.0 0.0 0.00 0.00 0.00 87 1013.5
20260503234005 47 275 0.0 0.0 0.00 0.00 0.00 87 1013.5
20260503233506 47 275 0.0 0.0 0.00 0.00 0.00 87 1013.5
20260503231505 48 274 0.0 0.0 0.00 0.00 0.00 86 1013.5
20260503230505 49 272 0.0 0.0 0.00 0.00 0.00 85 1013.2
20260503230005 49 273 0.0 0.0 0.00 0.00 0.00 85 1013.5
20260503224504 49 271 0.0 0.0 0.00 0.00 0.00 85 1013.5
20260503221505 50 272 0.0 0.0 0.00 0.00 0.00 82 1013.5
20260503221005 50 273 0.0 0.0 0.00 0.00 0.00 83 1013.3
20260503220505 50 274 0.0 0.0 0.00 0.00 0.00 82 1013.5
20260503220005 50 274 0.0 0.0 0.00 0.00 0.00 82 1013.4
20260503214504 50 275 0.0 0.0 0.00 0.00 0.00 82 1013.4
20260503214005 50 267 0.0 0.0 0.00 0.00 0.00 82 1013.4
20260503213505 51 269 0.0 0.0 0.00 0.00 0.00 81 1013.4
20260503211506 51 269 0.0 0.0 0.00 0.00 0.00 80 1013.2
20260503211005 51 267 0.0 0.0 0.00 0.00 0.00 80 1013.2
20260503210505 51 272 0.0 0.0 0.00 0.00 0.00 81 1013.2
20260503210005 52 273 0.0 0.0 0.00 0.00 0.00 80 1013.5
20260503204004 53 274 0.9 2.6 0.00 0.00 0.00 76 1013.2
20260503203505 54 273 1.7 2.6 0.00 0.00 0.00 76 1013.2
20260503203005 54 270 0.0 0.0 0.00 0.00 0.00 75 1013.2
20260503201505 56 271 0.0 0.0 0.00 0.00 0.00 72 1013.2
20260503201005 57 279 0.0 0.0 0.00 0.00 0.00 68 1013.2
20260503200505 58 274 0.0 0.0 0.00 0.00 0.00 67 1013.2
20260503200004 59 271 0.0 1.7 0.00 0.00 0.00 64 1013.5
20260503194505 60 273 0.0 2.6 0.00 0.00 0.00 60 1013.2
20260503193505 61 265 0.9 4.3 0.00 0.00 0.00 58 1013.4
20260503193006 61 293 0.9 6.1 0.00 0.00 0.00 57 1013.2
20260503191506 62 269 0.9 6.1 0.00 0.00 0.00 56 1012.9
20260503191005 62 296 3.5 8.7 0.00 0.00 0.00 56 1013.0
20260503190504 62 299 1.7 8.7 0.00 0.00 0.00 56 1012.9
20260503190004 62 306 4.3 11.3 0.00 0.00 0.00 55 1012.9
20260503184504 63 285 4.3 7.0 0.00 0.00 0.00 54 1013.2
20260503184005 63 211 4.3 7.0 0.00 0.00 0.00 53 1013.2
20260503183505 64 3 3.5 11.3 0.00 0.00 0.00 53 1012.9
20260503183005 64 321 4.3 7.0 0.00 0.00 0.00 52 1012.9
20260503181506 65 219 6.1 11.3 0.00 0.00 0.00 50 1012.9
20260503181004 66 280 6.1 8.7 0.00 0.00 0.00 55 1012.6
20260503180005 66 321 3.5 6.1 0.00 0.00 0.00 54 1012.5
20260503174504 67 318 1.7 6.1 0.00 0.00 0.00 52 1012.5
20260503173505 67 266 6.1 12.2 0.00 0.00 0.00 52 1012.5
20260503171004 68 286 6.1 8.7 0.00 0.00 0.00 48 1012.5
20260503170504 69 310 6.1 12.2 0.00 0.00 0.00 47 1012.2
20260503151005 72 267 4.3 8.7 0.00 0.00 0.00 40 1012.2
20260503150505 73 294 7.8 8.7 0.00 0.00 0.00 39 1011.9
20260503131004 74 288 3.5 4.3 0.00 0.00 0.00 36 1012.9
20260503130504 74 297 1.7 6.1 0.00 0.00 0.00 36 1012.9
20260503110505 70 5 1.7 7.0 0.00 0.00 0.00 39 1013.5